QPF
0.00 0.00 0.00 0.00 0.00 0.00 0.00 0.00 0.00 0.00 0.00 0.00 0.00 0.00 0.00 0.00 0.00 0.00 0.00 0.00 0.00 0.00 0.00 0.00 0.00 0.00 0.00 0.00 0.00 0.00 0.00 0.00 0.00 0.00 0.00 0.00 0.00 0.00 0.00 0.00 0.00 0.00 0.00
0.00 0.00 0.00 0.00 0.00 0.00 0.00 0.00 0.00 0.00 0.00 0.00 0.00 0.00 0.00 0.00 0.00 0.00 0.00 0.00 0.00 0.00 0.00 0.00 0.00 0.00 0.00 0.00 0.00 0.00 0.00 0.00 0.00 0.00 0.00 0.00 0.00 0.00 0.00 0.00 0.00 0.00 0.00
0.00 0.00 0.00 0.00 0.00 0.00 0.00 0.00 0.00 0.00 0.00 0.00 0.00 0.00 0.00 0.00 0.00 0.00 0.00 0.00 0.00 0.00 0.00 0.00 0.00 0.00 0.00 0.00 0.00 0.00 0.00 0.00 0.00 0.00 0.00 0.00 0.00 0.00 0.00 0.00 0.00 0.00 0.00
0.00 0.00 0.00 0.00 0.00 0.00 0.00 0.00 0.00 0.00 0.00 0.00 0.00 0.00 0.00 0.00 0.00 0.00 0.00 0.00 0.00 0.00 0.00 0.00 0.00 0.00 0.00 0.00 0.00 0.00 0.00 0.00 0.00 0.01 0.00 0.00 0.00 0.00 0.00 0.00 0.00 0.00 0.00
0.00 0.00 0.00 0.00 0.00 0.00 0.00 0.00 0.00 0.00 0.00 0.00 0.00 0.00 0.00 0.00 0.00 0.00 0.00 0.00 0.00 0.00 0.00 0.00 0.00 0.00 0.00 0.00 0.00 0.00 0.00 0.01 0.01 0.01 0.01 0.00 0.00 0.00 0.00 0.00 0.00 0.00 0.00
0.00 0.00 0.00 0.00 0.00 0.00 0.00 0.00 0.00 0.00 0.00 0.00 0.00 0.00 0.00 0.00 0.00 0.00 0.00 0.00 0.00 0.00 0.00 0.00 0.00 0.00 0.00 0.00 0.00 0.00 0.00 0.01 0.02 0.02 0.01 0.01 0.00 0.00 0.01 0.01 0.00 0.00 0.00
0.00 0.00 0.00 0.00 0.00 0.00 0.00 0.00 0.00 0.00 0.00 0.00 0.00 0.00 0.00 0.00 0.00 0.00 0.00 0.00 0.00 0.00 0.00 0.00 0.00 0.00 0.00 0.00 0.00 0.00 0.00 0.00 0.01 0.02 0.02 0.01 0.01 0.01 0.01 0.01 0.01 0.01 0.00
0.00 0.00 0.00 0.00 0.00 0.00 0.00 0.00 0.00 0.00 0.00 0.00 0.00 0.00 0.00 0.00 0.00 0.00 0.00 0.00 0.00 0.00 0.00 0.00 0.00 0.00 0.00 0.00 0.00 0.01 0.01 0.00 0.01 0.01 0.01 0.01 0.00 0.01 0.01 0.02 0.03 0.02 0.01
0.00 0.00 0.00 0.00 0.00 0.00 0.00 0.00 0.00 0.00 0.00 0.00 0.00 0.00 0.00 0.00 0.00 0.00 0.00 0.00 0.00 0.00 0.00 0.00 0.00 0.00 0.00 0.01 0.02 0.02 0.01 0.00 0.00 0.00 0.01 0.01 0.01 0.01 0.02 0.04 0.04 0.04 0.02
0.00 0.00 0.00 0.00 0.00 0.00 0.00 0.00 0.00 0.00 0.00 0.00 0.00 0.00 0.00 0.00 0.00 0.00 0.00 0.00 0.00 0.00 0.00 0.00 0.00 0.00 0.00 0.01 0.03 0.03 0.03 0.01 0.01 0.01 0.01 0.01 0.00 0.00 0.01 0.01 0.01 0.03 0.02
0.00 0.00 0.00 0.00 0.00 0.00 0.00 0.00 0.00 0.00 0.00 0.00 0.00 0.00 0.00 0.00 0.00 0.00 0.00 0.01 0.01 0.01 0.01 0.00 0.00 0.00 0.01 0.02 0.03 0.05 0.04 0.03 0.05 0.05 0.04 0.02 0.01 0.01 0.00 0.00 0.00 0.01 0.02
0.00 0.00 0.00 0.00 0.00 0.00 0.00 0.00 0.00 0.00 0.00 0.00 0.00 0.00 0.00 0.00 0.00 0.00 0.00 0.00 0.01 0.02 0.01 0.00 0.01 0.01 0.02 0.03 0.03 0.02 0.02 0.03 0.03 0.02 0.01 0.01 0.00 0.00 0.00 0.00 0.00 0.00 0.01
0.00 0.00 0.00 0.00 0.00 0.00 0.00 0.00 0.00 0.00 0.00 0.00 0.00 0.00 0.00 0.00 0.00 0.00 0.00 0.00 0.01 0.01 0.01 0.01 0.01 0.01 0.01 0.01 0.00 0.01 0.01 0.01 0.01 0.01 0.01 0.00 0.00 0.00 0.00 0.00 0.00 0.00 0.00
0.00 0.00 0.00 0.00 0.00 0.00 0.00 0.00 0.00 0.00 0.00 0.00 0.00 0.00 0.00 0.00 0.00 0.00 0.00 0.01 0.01 0.01 0.01 0.01 0.00 0.00 0.00 0.00 0.00 0.00 0.00 0.00 0.00 0.01 0.00 0.00 0.00 0.00 0.00 0.00 0.01 0.01 0.01
0.00 0.00 0.00 0.00 0.00 0.00 0.00 0.00 0.00 0.00 0.00 0.00 0.00 0.00 0.00 0.00 0.00 0.01 0.02 0.03 0.03 0.03 0.02 0.01 0.00 0.00 0.00 0.00 0.00 0.00 0.00 0.00 0.00 0.00 0.01 0.01 0.00 0.00 0.00 0.00 0.01 0.02 0.02
0.00 0.00 0.00 0.00 0.00 0.00 0.00 0.00 0.00 0.00 0.00 0.01 0.01 0.02 0.01 0.01 0.01 0.02 0.02 0.02 0.02 0.01 0.01 0.00 0.00 0.00 0.00 0.00 0.00 0.00 0.00 0.00 0.00 0.00 0.01 0.01 0.01 0.01 0.01 0.01 0.01 0.02 0.03
0.00 0.01 0.01 0.01 0.01 0.01 0.00 0.00 0.00 0.00 0.00 0.00 0.00 0.01 0.01 0.01 0.02 0.02 0.02 0.02 0.01 0.00 0.00 0.00 0.00 0.00 0.00 0.00 0.00 0.00 0.00 0.00 0.00 0.01 0.01 0.01 0.01 0.01 0.01 0.01 0.01 0.02 0.03
0.00 0.00 0.00 0.00 0.00 0.00 0.00 0.00 0.00 0.00 0.00 0.00 0.00 0.00 0.00 0.01 0.01 0.01 0.01 0.01 0.00 0.00 0.00 0.00 0.00 0.00 0.00 0.00 0.00 0.00 0.00 0.00 0.00 0.01 0.01 0.01 0.01 0.02 0.02 0.01 0.02 0.03 0.04
0.00 0.00 0.00 0.00 0.00 0.00 0.00 0.00 0.00 0.00 0.00 0.00 0.00 0.00 0.00 0.00 0.00 0.01 0.01 0.00 0.00 0.00 0.00 0.00 0.00 0.00 0.00 0.00 0.00 0.00 0.00 0.00 0.00 0.01 0.01 0.01 0.01 0.02 0.02 0.01 0.02 0.02 0.03
0.00 0.00 0.00 0.00 0.00 0.00 0.00 0.00 0.00 0.00 0.00 0.00 0.00 0.00 0.00 0.00 0.00 0.00 0.00 0.00 0.00 0.00 0.00 0.00 0.00 0.00 0.00 0.00 0.00 0.00 0.00 0.00 0.00 0.01 0.01 0.01 0.01 0.02 0.02 0.02 0.02 0.03 0.03
0.00 0.00 0.00 0.00 0.00 0.00 0.00 0.00 0.00 0.00 0.00 0.00 0.00 0.00 0.01 0.01 0.00 0.00 0.00 0.00 0.00 0.00 0.00 0.00 0.00 0.00 0.00 0.00 0.00 0.00 0.00 0.00 0.00 0.01 0.01 0.01 0.01 0.01 0.02 0.02 0.02 0.02 0.03
0.00 0.00 0.00 0.00 0.00 0.00 0.00 0.00 0.00 0.00 0.00 0.00 0.00 0.00 0.01 0.01 0.00 0.00 0.00 0.00 0.00 0.00 0.00 0.00 0.00 0.00 0.00 0.00 0.00 0.01 0.00 0.00 0.01 0.01 0.01 0.01 0.01 0.01 0.01 0.01 0.01 0.02 0.02
0.00 0.00 0.00 0.00 0.00 0.00 0.00 0.00 0.00 0.00 0.00 0.00 0.00 0.00 0.00 0.00 0.00 0.00 0.00 0.00 0.00 0.00 0.00 0.00 0.00 0.00 0.00 0.00 0.00 0.01 0.01 0.01 0.02 0.02 0.02 0.01 0.01 0.01 0.01 0.01 0.01 0.01 0.02
0.00 0.00 0.00 0.00 0.00 0.00 0.00 0.00 0.00 0.00 0.00 0.00 0.00 0.00 0.00 0.00 0.00 0.00 0.00 0.00 0.00 0.00 0.00 0.00 0.00 0.00 0.00 0.00 0.00 0.00 0.00 0.01 0.02 0.02 0.02 0.01 0.01 0.01 0.01 0.01 0.01 0.01 0.01
0.00 0.00 0.00 0.00 0.00 0.00 0.00 0.00 0.00 0.00 0.00 0.00 0.00 0.00 0.00 0.00 0.00 0.00 0.00 0.00 0.00 0.00 0.00 0.00 0.00 0.00 0.00 0.00 0.00 0.00 0.00 0.01 0.01 0.01 0.01 0.01 0.00 0.00 0.01 0.01 0.01 0.01 0.01
0.00 0.00 0.00 0.00 0.00 0.00 0.00 0.00 0.00 0.00 0.01 0.00 0.00 0.00 0.00 0.00 0.00 0.00 0.00 0.00 0.00 0.00 0.00 0.00 0.00 0.00 0.00 0.00 0.00 0.00 0.00 0.01 0.02 0.01 0.01 0.00 0.00 0.00 0.00 0.00 0.00 0.00 0.00
MSLP
1029.54 1029.80 1030.03 1030.24 1030.45 1030.67 1030.90 1031.14 1031.38 1031.62 1031.84 1032.02 1032.12 1032.15 1032.10 1031.98 1031.79 1031.57 1031.35 1031.14 1030.97 1030.82 1030.71 1030.58 1030.42 1030.17 1029.81 1029.30 1028.64 1027.83 1026.91 1025.93 1024.92 1023.95 1023.05 1022.26 1021.59 1021.02 1020.55 1020.13 1019.75 1019.37 1018.96
1029.40 1029.71 1029.98 1030.22 1030.44 1030.66 1030.90 1031.15 1031.41 1031.66 1031.89 1032.06 1032.17 1032.19 1032.12 1031.98 1031.77 1031.52 1031.27 1031.04 1030.85 1030.71 1030.60 1030.49 1030.36 1030.15 1029.84 1029.38 1028.78 1028.05 1027.19 1026.25 1025.28 1024.32 1023.40 1022.55 1021.80 1021.13 1020.53 1019.98 1019.47 1018.96 1018.45
1028.99 1029.39 1029.72 1030.01 1030.27 1030.53 1030.80 1031.08 1031.37 1031.64 1031.89 1032.08 1032.20 1032.22 1032.15 1032.00 1031.78 1031.52 1031.25 1031.01 1030.80 1030.64 1030.51 1030.40 1030.26 1030.07 1029.80 1029.40 1028.86 1028.21 1027.43 1026.57 1025.66 1024.73 1023.82 1022.95 1022.13 1021.36 1020.65 1019.97 1019.33 1018.69 1018.06
1028.38 1028.85 1029.26 1029.63 1029.96 1030.28 1030.60 1030.93 1031.25 1031.56 1031.84 1032.06 1032.19 1032.24 1032.18 1032.04 1031.82 1031.56 1031.29 1031.03 1030.80 1030.61 1030.45 1030.30 1030.14 1029.94 1029.67 1029.30 1028.82 1028.24 1027.55 1026.77 1025.93 1025.06 1024.18 1023.31 1022.45 1021.62 1020.81 1020.03 1019.27 1018.52 1017.78
1027.62 1028.17 1028.66 1029.10 1029.51 1029.91 1030.30 1030.69 1031.07 1031.43 1031.74 1031.99 1032.16 1032.22 1032.19 1032.06 1031.87 1031.62 1031.34 1031.07 1030.81 1030.57 1030.36 1030.15 1029.94 1029.70 1029.41 1029.05 1028.60 1028.06 1027.44 1026.74 1025.98 1025.18 1024.34 1023.48 1022.62 1021.76 1020.90 1020.05 1019.21 1018.38 1017.57
1026.81 1027.42 1027.98 1028.50 1028.99 1029.47 1029.94 1030.40 1030.84 1031.25 1031.60 1031.88 1032.07 1032.16 1032.15 1032.05 1031.86 1031.62 1031.35 1031.05 1030.76 1030.47 1030.19 1029.91 1029.63 1029.32 1028.98 1028.59 1028.14 1027.63 1027.05 1026.41 1025.72 1024.97 1024.18 1023.37 1022.52 1021.66 1020.80 1019.93 1019.07 1018.21 1017.38
1026.02 1026.67 1027.29 1027.88 1028.45 1029.01 1029.56 1030.09 1030.59 1031.04 1031.42 1031.73 1031.93 1032.03 1032.03 1031.94 1031.76 1031.52 1031.24 1030.92 1030.59 1030.25 1029.89 1029.54 1029.17 1028.78 1028.37 1027.93 1027.45 1026.93 1026.37 1025.76 1025.11 1024.41 1023.68 1022.91 1022.11 1021.29 1020.46 1019.62 1018.79 1017.97 1017.17
1025.33 1026.00 1026.65 1027.30 1027.94 1028.57 1029.19 1029.78 1030.33 1030.81 1031.21 1031.52 1031.72 1031.81 1031.80 1031.70 1031.52 1031.27 1030.97 1030.63 1030.26 1029.86 1029.45 1029.01 1028.56 1028.09 1027.61 1027.10 1026.58 1026.03 1025.46 1024.86 1024.23 1023.57 1022.87 1022.15 1021.40 1020.64 1019.88 1019.11 1018.36 1017.63 1016.90
1024.74 1025.42 1026.10 1026.79 1027.49 1028.19 1028.86 1029.50 1030.07 1030.57 1030.96 1031.25 1031.42 1031.48 1031.44 1031.31 1031.10 1030.84 1030.52 1030.16 1029.76 1029.33 1028.86 1028.37 1027.86 1027.33 1026.78 1026.21 1025.64 1025.06 1024.46 1023.85 1023.22 1022.57 1021.90 1021.22 1020.52 1019.82 1019.13 1018.46 1017.82 1017.19 1016.59
1024.25 1024.93 1025.63 1026.36 1027.10 1027.84 1028.55 1029.21 1029.80 1030.28 1030.64 1030.88 1031.00 1031.01 1030.92 1030.75 1030.51 1030.22 1029.89 1029.52 1029.12 1028.68 1028.20 1027.69 1027.14 1026.57 1025.99 1025.38 1024.77 1024.16 1023.53 1022.90 1022.26 1021.60 1020.94 1020.27 1019.61 1018.96 1018.34 1017.76 1017.21 1016.70 1016.20
1023.82 1024.49 1025.21 1025.96 1026.74 1027.51 1028.24 1028.90 1029.47 1029.91 1030.22 1030.40 1030.45 1030.39 1030.24 1030.02 1029.76 1029.46 1029.13 1028.77 1028.39 1027.97 1027.52 1027.03 1026.50 1025.93 1025.34 1024.73 1024.10 1023.46 1022.81 1022.16 1021.49 1020.82 1020.14 1019.47 1018.82 1018.19 1017.61 1017.08 1016.60 1016.16 1015.76
1023.41 1024.08 1024.81 1025.57 1026.37 1027.14 1027.87 1028.51 1029.04 1029.43 1029.67 1029.77 1029.74 1029.61 1029.41 1029.16 1028.88 1028.58 1028.28 1027.97 1027.64 1027.29 1026.90 1026.46 1025.99 1025.47 1024.91 1024.31 1023.69 1023.05 1022.39 1021.71 1021.02 1020.32 1019.61 1018.91 1018.23 1017.59 1017.01 1016.48 1016.02 1015.61 1015.24
1022.99 1023.67 1024.40 1025.17 1025.96 1026.72 1027.42 1028.02 1028.48 1028.80 1028.97 1028.99 1028.89 1028.71 1028.47 1028.20 1027.93 1027.66 1027.42 1027.18 1026.94 1026.68 1026.38 1026.05 1025.65 1025.21 1024.71 1024.16 1023.57 1022.94 1022.28 1021.58 1020.86 1020.12 1019.37 1018.62 1017.89 1017.20 1016.56 1015.98 1015.48 1015.03 1014.62
1022.60 1023.27 1023.99 1024.75 1025.51 1026.23 1026.88 1027.41 1027.81 1028.05 1028.13 1028.09 1027.94 1027.71 1027.46 1027.20 1026.97 1026.77 1026.60 1026.46 1026.33 1026.19 1026.01 1025.78 1025.49 1025.13 1024.71 1024.22 1023.67 1023.06 1022.40 1021.70 1020.95 1020.17 1019.37 1018.56 1017.75 1016.97 1016.24 1015.57 1014.95 1014.40 1013.90
1022.27 1022.92 1023.62 1024.34 1025.05 1025.71 1026.29 1026.74 1027.05 1027.21 1027.23 1027.13 1026.94 1026.70 1026.46 1026.25 1026.08 1025.96 1025.90 1025.87 1025.86 1025.83 1025.77 1025.65 1025.46 1025.18 1024.83 1024.39 1023.88 1023.30 1022.65 1021.94 1021.17 1020.36 1019.50 1018.62 1017.73 1016.85 1015.99 1015.18 1014.43 1013.72 1013.07
1022.07 1022.69 1023.34 1024.01 1024.64 1025.22 1025.70 1026.06 1026.28 1026.37 1026.32 1026.19 1025.99 1025.77 1025.56 1025.41 1025.32 1025.30 1025.34 1025.42 1025.52 1025.59 1025.63 1025.59 1025.48 1025.27 1024.96 1024.57 1024.08 1023.51 1022.87 1022.15 1021.37 1020.53 1019.63 1018.69 1017.71 1016.73 1015.75 1014.79 1013.88 1013.00 1012.16
1022.05 1022.62 1023.21 1023.79 1024.34 1024.81 1025.19 1025.46 1025.59 1025.61 1025.52 1025.36 1025.17 1024.98 1024.83 1024.74 1024.73 1024.80 1024.93 1025.10 1025.28 1025.43 1025.53 1025.55 1025.47 1025.29 1025.01 1024.63 1024.15 1023.59 1022.95 1022.23 1021.44 1020.58 1019.65 1018.66 1017.62 1016.55 1015.47 1014.38 1013.31 1012.26 1011.25
1022.25 1022.75 1023.25 1023.74 1024.18 1024.55 1024.82 1024.99 1025.05 1025.01 1024.88 1024.72 1024.53 1024.38 1024.28 1024.26 1024.32 1024.46 1024.65 1024.88 1025.10 1025.29 1025.40 1025.44 1025.37 1025.19 1024.90 1024.51 1024.03 1023.47 1022.83 1022.11 1021.32 1020.45 1019.51 1018.50 1017.43 1016.30 1015.14 1013.95 1012.75 1011.57 1010.41
1022.62 1023.04 1023.45 1023.83 1024.17 1024.43 1024.61 1024.69 1024.68 1024.59 1024.44 1024.27 1024.10 1023.98 1023.92 1023.94 1024.05 1024.22 1024.44 1024.69 1024.91 1025.09 1025.20 1025.21 1025.12 1024.91 1024.61 1024.20 1023.70 1023.13 1022.49 1021.78 1020.99 1020.14 1019.21 1018.20 1017.12 1015.97 1014.77 1013.53 1012.26 1010.99 1009.73
1023.09 1023.42 1023.74 1024.02 1024.26 1024.43 1024.52 1024.53 1024.46 1024.33 1024.16 1023.98 1023.83 1023.72 1023.68 1023.72 1023.84 1024.01 1024.23 1024.45 1024.65 1024.80 1024.87 1024.84 1024.71 1024.47 1024.13 1023.70 1023.20 1022.62 1021.98 1021.28 1020.52 1019.69 1018.79 1017.81 1016.75 1015.62 1014.42 1013.17 1011.88 1010.58 1009.29
1023.56 1023.81 1024.04 1024.24 1024.39 1024.47 1024.49 1024.44 1024.32 1024.16 1023.98 1023.79 1023.63 1023.53 1023.49 1023.52 1023.61 1023.76 1023.94 1024.12 1024.27 1024.37 1024.39 1024.31 1024.14 1023.87 1023.51 1023.07 1022.56 1021.99 1021.37 1020.69 1019.96 1019.16 1018.30 1017.36 1016.35 1015.26 1014.11 1012.90 1011.65 1010.38 1009.11
1023.93 1024.10 1024.25 1024.38 1024.45 1024.48 1024.44 1024.34 1024.19 1024.01 1023.80 1023.60 1023.43 1023.31 1023.24 1023.24 1023.30 1023.40 1023.52 1023.64 1023.74 1023.78 1023.75 1023.64 1023.45 1023.17 1022.80 1022.37 1021.87 1021.32 1020.72 1020.07 1019.37 1018.61 1017.80 1016.91 1015.96 1014.94 1013.86 1012.73 1011.56 1010.37 1009.18
1024.09 1024.20 1024.29 1024.36 1024.38 1024.36 1024.28 1024.15 1023.97 1023.77 1023.54 1023.33 1023.13 1022.98 1022.88 1022.83 1022.84 1022.88 1022.94 1023.01 1023.05 1023.05 1022.99 1022.87 1022.67 1022.39 1022.05 1021.63 1021.16 1020.64 1020.07 1019.46 1018.79 1018.08 1017.31 1016.48 1015.60 1014.66 1013.67 1012.64 1011.59 1010.52 1009.46
1024.02 1024.09 1024.13 1024.15 1024.13 1024.07 1023.97 1023.81 1023.62 1023.40 1023.16 1022.92 1022.71 1022.52 1022.38 1022.29 1022.24 1022.22 1022.23 1022.25 1022.25 1022.22 1022.15 1022.03 1021.85 1021.60 1021.28 1020.90 1020.47 1019.98 1019.45 1018.86 1018.23 1017.55 1016.82 1016.05 1015.24 1014.39 1013.51 1012.61 1011.69 1010.77 1009.86
1023.75 1023.77 1023.78 1023.76 1023.72 1023.63 1023.50 1023.33 1023.13 1022.90 1022.65 1022.40 1022.16 1021.95 1021.78 1021.64 1021.54 1021.48 1021.45 1021.43 1021.40 1021.36 1021.29 1021.18 1021.01 1020.79 1020.52 1020.17 1019.77 1019.32 1018.81 1018.25 1017.64 1017.00 1016.32 1015.60 1014.86 1014.11 1013.34 1012.57 1011.81 1011.05 1010.32
1023.34 1023.32 1023.29 1023.25 1023.17 1023.07 1022.93 1022.75 1022.54 1022.30 1022.05 1021.79 1021.54 1021.32 1021.12 1020.95 1020.82 1020.73 1020.66 1020.61 1020.57 1020.51 1020.44 1020.34 1020.19 1020.00 1019.74 1019.42 1019.05 1018.61 1018.12 1017.58 1017.00 1016.38 1015.74 1015.08 1014.42 1013.77 1013.12 1012.50 1011.89 1011.31 1010.76
Thickness
5455 5448 5440 5433 5426 5419 5412 5404 5397 5389 5382 5375 5368 5362 5357 5352 5347 5343 5339 5335 5331 5328 5325 5322 5320 5317 5316 5315 5315 5315 5317 5319 5330 5353 5358 5364 5369 5376 5383 5388 5395 5403 5413
5440 5432 5424 5416 5408 5401 5393 5385 5377 5370 5362 5354 5347 5341 5335 5330 5325 5320 5316 5312 5308 5304 5301 5297 5295 5292 5289 5288 5288 5289 5290 5291 5296 5314 5331 5334 5339 5345 5354 5362 5371 5379 5389
5425 5416 5408 5400 5392 5384 5375 5366 5358 5350 5342 5334 5327 5320 5313 5307 5302 5298 5293 5288 5284 5279 5275 5272 5269 5266 5264 5262 5260 5261 5263 5265 5267 5277 5296 5304 5309 5315 5323 5335 5344 5355 5366
5410 5402 5394 5385 5377 5367 5358 5348 5339 5331 5323 5315 5307 5299 5291 5285 5280 5275 5270 5266 5262 5257 5252 5248 5245 5242 5239 5237 5237 5237 5238 5240 5242 5247 5261 5273 5279 5284 5290 5302 5316 5328 5340
5397 5389 5380 5370 5360 5350 5340 5331 5321 5312 5304 5295 5287 5278 5271 5264 5259 5254 5250 5246 5242 5238 5234 5230 5226 5222 5218 5216 5216 5217 5216 5217 5219 5223 5232 5243 5251 5254 5259 5267 5279 5294 5310
5385 5376 5365 5354 5342 5332 5322 5313 5304 5295 5285 5276 5267 5259 5252 5245 5239 5235 5231 5229 5226 5222 5219 5215 5211 5207 5205 5202 5200 5198 5197 5197 5199 5201 5209 5217 5225 5227 5231 5236 5245 5261 5280
5369 5359 5348 5337 5327 5317 5306 5296 5287 5278 5268 5259 5250 5242 5235 5228 5223 5220 5216 5214 5211 5208 5204 5201 5197 5193 5189 5188 5187 5185 5184 5181 5181 5183 5191 5197 5202 5206 5209 5216 5221 5231 5246
5355 5345 5333 5322 5312 5301 5290 5280 5271 5261 5252 5244 5236 5228 5221 5215 5210 5207 5204 5201 5199 5195 5190 5186 5182 5180 5176 5173 5175 5175 5175 5174 5172 5174 5179 5184 5187 5189 5192 5198 5203 5214 5226
5343 5332 5321 5310 5298 5286 5275 5266 5256 5246 5238 5229 5222 5215 5208 5203 5198 5195 5192 5190 5187 5183 5178 5173 5169 5167 5164 5162 5163 5166 5169 5170 5170 5171 5174 5177 5180 5182 5183 5187 5193 5199 5213
5332 5322 5309 5297 5285 5273 5263 5252 5242 5232 5225 5217 5211 5204 5198 5192 5187 5183 5180 5177 5175 5172 5169 5164 5159 5156 5155 5153 5153 5157 5163 5166 5167 5170 5171 5174 5176 5178 5179 5180 5183 5187 5197
5320 5307 5294 5283 5271 5260 5249 5238 5228 5219 5212 5205 5199 5193 5187 5182 5177 5173 5168 5165 5162 5161 5159 5155 5152 5148 5147 5146 5146 5149 5152 5156 5159 5161 5165 5168 5171 5172 5174 5174 5175 5178 5185
5303 5291 5279 5267 5256 5245 5234 5224 5214 5207 5200 5195 5189 5184 5179 5173 5168 5164 5159 5155 5151 5148 5147 5144 5141 5139 5139 5138 5138 5140 5141 5143 5146 5149 5153 5157 5161 5164 5166 5166 5167 5169 5174
5285 5274 5262 5250 5240 5230 5221 5212 5203 5195 5191 5188 5183 5178 5173 5166 5159 5154 5150 5145 5141 5138 5136 5133 5130 5128 5127 5128 5127 5128 5129 5130 5132 5135 5140 5144 5147 5150 5152 5154 5156 5158 5163
5269 5258 5246 5235 5226 5216 5208 5202 5195 5189 5183 5179 5174 5169 5164 5157 5151 5146 5142 5137 5134 5130 5126 5122 5118 5116 5115 5116 5116 5116 5117 5117 5119 5121 5125 5129 5132 5135 5138 5141 5145 5148 5153
5253 5243 5233 5223 5216 5207 5198 5193 5187 5182 5175 5169 5164 5158 5153 5149 5144 5138 5133 5130 5126 5122 5117 5111 5108 5106 5106 5106 5106 5105 5106 5107 5108 5109 5111 5115 5118 5122 5125 5128 5131 5135 5139
5239 5229 5220 5212 5203 5195 5189 5181 5176 5171 5165 5160 5155 5149 5145 5141 5136 5131 5125 5120 5116 5110 5103 5099 5095 5094 5094 5095 5095 5096 5096 5096 5096 5097 5099 5101 5105 5109 5114 5117 5120 5124 5128
5226 5217 5208 5200 5192 5184 5177 5171 5166 5160 5153 5149 5144 5140 5136 5132 5126 5120 5115 5110 5103 5097 5090 5087 5085 5083 5083 5083 5084 5084 5085 5086 5085 5086 5088 5090 5093 5097 5102 5107 5112 5115 5119
5207 5199 5191 5184 5177 5170 5164 5157 5151 5145 5140 5134 5127 5123 5120 5116 5112 5107 5103 5097 5090 5084 5079 5077 5075 5074 5074 5074 5074 5074 5075 5076 5076 5077 5079 5081 5084 5088 5093 5098 5102 5105 5109
5189 5182 5174 5167 5160 5153 5146 5140 5134 5127 5123 5118 5111 5106 5102 5099 5097 5094 5090 5084 5080 5075 5071 5068 5067 5066 5066 5066 5066 5066 5066 5067 5068 5069 5072 5075 5078 5081 5085 5089 5093 5098 5101
5169 5162 5155 5149 5142 5135 5129 5123 5118 5112 5107 5102 5097 5092 5086 5081 5081 5079 5075 5072 5069 5066 5064 5061 5060 5059 5059 5059 5059 5059 5060 5061 5062 5064 5067 5070 5073 5075 5078 5082 5087 5091 5096
5152 5145 5137 5131 5125 5118 5112 5105 5100 5094 5089 5085 5081 5076 5072 5069 5070 5067 5064 5062 5060 5059 5057 5055 5054 5054 5054 5054 5054 5054 5055 5056 5057 5059 5062 5065 5068 5070 5073 5077 5081 5085 5090
5134 5128 5121 5114 5107 5100 5093 5086 5080 5074 5069 5064 5062 5057 5057 5058 5058 5056 5054 5053 5052 5051 5050 5049 5049 5050 5050 5050 5050 5050 5050 5051 5053 5054 5057 5060 5063 5066 5068 5071 5075 5079 5083
5116 5110 5103 5096 5089 5081 5072 5066 5058 5052 5047 5043 5041 5039 5039 5040 5041 5042 5043 5044 5044 5044 5044 5044 5045 5046 5047 5047 5047 5047 5047 5048 5049 5049 5051 5055 5058 5061 5063 5066 5069 5072 5076
5099 5092 5086 5079 5071 5063 5055 5047 5040 5033 5027 5023 5022 5022 5023 5025 5028 5031 5034 5036 5037 5038 5040 5041 5042 5044 5044 5044 5044 5045 5046 5046 5046 5047 5049 5051 5054 5056 5058 5060 5063 5066 5068
5081 5075 5068 5061 5053 5045 5037 5029 5022 5015 5010 5006 5005 5006 5009 5013 5017 5021 5025 5029 5031 5034 5036 5038 5040 5042 5043 5043 5043 5044 5045 5045 5045 5046 5048 5049 5051 5052 5053 5055 5057 5060 5062
5065 5059 5052 5044 5036 5028 5020 5013 5006 5000 4995 4992 4992 4994 4998 5003 5008 5013 5018 5022 5026 5030 5033 5036 5039 5040 5041 5042 5043 5044 5044 5045 5046 5047 5047 5047 5047 5048 5049 5051 5052 5054 5055